www.pogodaiklimat.ru

АРХИВ ПОГОДЫ в Тюмени

Время (UTC), дата Ветер
(напр.,м/с)
 
Видим.   Явления Облачность Т
(С)
Тd
(С)
f
(%)
Тe
(С)
Тes
(С)
Комфортность P
(гПа)
Po
(гПа)
Тmin
(С)
Tmax
(С)
R
(мм)
S
(см)
06 22.05 Ю 4 4000 м 3/0
[Ci fib]
+25.8 -0.5 18 +24 +32 комфорт 1023.8 1012.0
09 22.05 Ю 4 4000 м 6/4 1000 м
[Cu hum Ci fib]
+27.2 -1.4 15 +25 +30 комфорт 1022.6 1010.8
12 22.05 ЮВ 4
{11}
4000 м 3/1 1000 м
[Cu hum Ci fib]
+27.5 -1.7 15 +25 +28 комфорт 1021.8 1010.0
15 22.05 В 2
{10}
4000 м 9/0
[Ac lent Ci sp]
+24.5 +3.6 26 +24 +24 комфорт 1021.9 1010.1 +28.4
18 22.05 В 2
{10}
50 км 8/0
[Ac cast Ci sp]
+19.6 +4.1 36 +21 +21 комфорт 1021.3 1009.3
21 22.05 В 2 50 км 8/0
[Ac trans Ci sp]
+18.0 +4.6 41 +19 +19 тепло 1022.0 1009.8
00 23.05 В 2 4000 м 8/5 600 м
[Sc Ac cast]
+15.1 +5.8 54 +15 +15 тепло 1022.6 1010.3
03 23.05 Ю 1 4000 м 9/5 600 м
[Sc Ac cast]
+20.5 +6.7 41 +23 +24 комфорт 1022.8 1010.8 +15.0
06 23.05 В 2 4000 м 6/0
[Ac cast Ci fib]
+26.6 +4.5 24 +26 +35 жарко 1022.6 1010.8
09 23.05 Ю 1 4000 м 8/5 600 м
[Sc Ci fib]
+26.6 +3.2 22 +25 +32 комфорт 1022.0 1010.2
12 23.05 В 1 4000 м 8/4 600 м
[Sc Ac cast Ci fib]
+25.6 +4.6 26 +25 +28 комфорт 1021.8 1010.0
15 23.05 СЗ 2 4000 м 4/0
[Ac As Ci fib]
+24.6 +7.0 32 +25 +25 комфорт 1021.7 1009.9 +28.3
18 23.05 СВ 1 50 км 3/0
[Ac trans]
+17.2 +8.6 57 +18 +18 тепло 1022.7 1010.5
21 23.05 СВ 1 50 км 1/0
[Ci fib]
+12.4 +8.0 75 +12 +12 тепло 1022.8 1010.5
00 24.05 штиль 0 4000 м 3/0
[Ci fib]
+10.5 +7.8 83 +10 +10 тепло 1022.8 1010.4
03 24.05 В 1 4000 м 3/0
[Ac trans Ci fib]
+20.8 +9.2 47 +23 +29 комфорт 1022.9 1010.9 +9.7
06 24.05 В 4 4000 м 1/0
[Ci fib]
+25.0 +8.2 34 +25 +34 комфорт 1022.4 1010.6
09 24.05 ЮВ 4 4000 м 6/6 600 м
[Cu med, cong]
+27.7 +2.9 20 +26 +30 жарко 1020.9 1009.2
12 24.05 СЗ 4
{14}
4000 м гроза, ливневой дождь 9/9 600 м
[Cb calv]
+23.8 +1.9 24 +23 +23 комфорт 1020.2 1008.3
15 24.05 СЗ 1
{11}
4000 м {гроза, ливн. осадки} 8/8 600 м
[Sc diur, vesp]
+22.5 +7.8 39 +24 +24 комфорт 1019.9 1008.0 +28.7 1
18 24.05 С 1 50 км {гроза, ливн. осадки} 1/1 600 м
[Sc diur, vesp]
+15.3 +10.2 72 +16 +16 тепло 1020.4 1008.2
21 24.05 штиль 0 50 км 6/0
[Ac trans]
+11.2 +9.4 89 +11 +11 тепло 1019.8 1007.4
00 25.05 штиль 0 4000 м 4/0
[Ac trans]
+10.2 +9.0 92 +9 +10 тепло 1019.5 1007.1
03 25.05 СЗ 1 4000 м 1/1 600 м
[Cu med, cong]
+18.4 +11.9 66 +20 +26 тепло 1018.8 1006.8 +9.8
06 25.05 В 2 4000 м 4/0
[Ci fib]
+25.6 +5.8 28 +25 +37 комфорт 1017.5 1005.7
09 25.05 С 2 4000 м 8/6 600 м
[Cu med, cong Ci fib]
+26.7 +7.4 29 +26 +31 жарко 1016.0 1004.4
12 25.05 С 1 4000 м 6/6 600 м
[Cb calv]
+27.6 +7.0 27 +27 +30 жарко 1014.4 1002.8
15 25.05 СЗ 1
{11}
4000 м 8/6 600 м
[Cb calv Ci fib]
+25.8 +7.6 31 +26 +26 жарко 1013.8 1002.1 +28.1
18 25.05 СЗ 2 50 км 9/6 600 м
[Cb calv Ci fib]
+19.6 +9.4 52 +21 +21 комфорт 1014.9 1002.9
21 25.05 СЗ 1 50 км 9/0
[Ac und]
+15.6 +9.0 65 +16 +16 тепло 1014.4 1002.3
00 26.05 З 2 4000 м 9/6 600 м
[Cb calv Ci sp]
+14.8 +9.8 72 +15 +15 тепло 1015.0 1002.9
03 26.05 СЗ 1 4000 м 10/4 600 м
[Cb calv Ci sp]
+16.8 +11.7 72 +18 +21 тепло 1014.6 1002.6 +14.5
06 26.05 СЗ 2 4000 м 8/0
[Ci sp]
+21.0 +9.4 47 +23 +34 комфорт 1014.6 1002.7
09 26.05 С 2 4000 м 8/3 600 м
[Cu med, cong Ci sp]
+24.0 +10.5 43 +25 +34 комфорт 1013.5 1001.8
12 26.05 З 2 4000 м 8/4 600 м
[Cb cap Ac trans Ci sp]
+21.4 +10.4 49 +23 +25 комфорт 1014.0 1002.1
15 26.05 СЗ 2 4000 м 8/0
[Ac trans Ci fib]
+20.0 +12.5 62 +22 +23 комфорт 1014.5 1002.6 +24.8
18 26.05 СЗ 1 50 км 6/0
[Ci fib]
+16.9 +12.6 76 +18 +18 тепло 1014.9 1002.9
21 26.05 СЗ 1 50 км ясно +14.0 +12.0 88 +14 +14 тепло 1015.7 1003.6
00 27.05 С 1 4000 м ясно +12.9 +12.0 94 +13 +13 тепло 1016.2 1004.0
03 27.05 СЗ 2 4000 м ясно +17.7 +13.4 76 +18 +24 тепло 1016.6 1004.6 +12.4
06 27.05 З 2 4000 м 1/1 600 м
[Cu med, cong]
+23.6 +12.4 49 +25 +37 комфорт 1016.5 1004.7
09 27.05 З 3 4000 м 4/4 600 м
[Cu med, cong]
+26.1 +10.2 37 +27 +34 жарко 1015.8 1004.2
12 27.05 З 2 4000 м 6/4 600 м
[Cu med, cong Ci fib]
+27.3 +8.9 31 +27 +31 жарко 1014.7 1003.1
15 27.05 З 1 4000 м 8/0
[Ac As Ci fib]
+26.3 +9.4 34 +27 +27 жарко 1014.4 1002.8 +28.0
18 27.05 З 1 50 км 8/0
[Ac As]
+18.5 +11.0 62 +20 +20 тепло 1014.9 1002.9
21 27.05 штиль 0 50 км 8/0
[Ac As]
+17.0 +11.5 70 +17 +17 тепло 1014.6 1002.6
00 28.05 штиль 0 4000 м 8/0
[Ac As Ci fib]
+15.2 +11.5 79 +15 +15 тепло 1013.6 1001.5
03 28.05 С 2 4000 м 9/0
[Ac trans Ci fib]
+17.5 +13.0 75 +18 +21 тепло 1014.5 1002.5 +14.1
06 28.05 СЗ 2 4000 м {гроза, ливн. осадки} 9/9 600 м
[Cb calv]
+19.8 +13.3 66 +22 +23 комфорт 1014.3 1002.4
09 28.05 С 3 4000 м слабый ливневой дождь 10/10 600 м
[Cb cap]
+12.5 +11.2 92 +11 +11 холодно 1016.8 1004.5
12 28.05 С 2 4000 м {ливн. осадки} 9/9 600 м
[Cb calv]
+13.2 +8.6 74 +13 +13 прохладно 1019.0 1006.7
15 28.05 СВ 1 4000 м 8/3 600 м
[Cu hum Ci fib]
+14.6 +4.8 52 +15 +16 по сезону 1019.1 1006.9 +20.8 0.3
18 28.05 С 1 50 км 8/3 300 м
[Sc Ci fib]
+10.5 +6.4 76 +10 +10 по сезону 1020.5 1008.1
21 28.05 штиль 0 50 км 3/3 300 м
[Sc]
+6.9 +5.3 90 +6 +6 прохладно 1021.3 1008.8
00 29.05 СВ 1 4000 м 9/9 600 м
[Sc]
+7.8 +4.1 77 +7 +7 по сезону 1022.1 1009.5
03 29.05 ЮВ 1 4000 м ясно +11.0 +3.2 59 +11 +17 по сезону 1022.2 1009.8 +6.4

 

Местоположение метеостанции Тюмень (Тюменская область, Россия): широта 57.12 долгота 65.43 высота над уровнем моря 102 м.

В архиве по умолчанию представлена погода в Тюмени за последнюю неделю. Архивные данные за месяц целиком и за предыдущие месяцы, начиная с января 2011 года, Вы можете получить, выбрав интересующий диапазон дат из раскрывающегося списка и нажав кнопку "Ввод!".

Внимание! Время в таблицах - всемирное. Для получения местного времени необходимо прибавить поправку, которая в Tjumen` равна 5 ч.

Ветер - указаны скорость ветра в м/с - средняя за 10 мин, порывы в срок и между сроками (в фигурных скобках) и направление, откуда дует ветер: С - северный, СВ - северо-восточный, В - восточный, ЮВ - юго-восточный, Ю - южный, ЮЗ - юго-западный, З - западный, СЗ - северо-западный.
Видимость - горизонтальная дальность видимости в метрах или километрах. При видимости от 1 до 10 км при отсутствии осадков обычно наблюдается дымка, при ухудшении видимости до 1 км и менее - туман. В сухую погоду видимость может ухудшаться дымом, пылью или мглою.
Явления - указаны атмосферные явления, наблюдавшиеся в срок или в последний час перед сроком; фигурными скобками обозначены явления, наблюдавшиеся между сроками (за 1-3 часа до срока); квадратными скобками обозначены град или гололедные отложения с указанием их диаметра в мм.
Облачность - указаны через наклонную черту общая и нижняя облачность в баллах и высота нижней границы облаков в метрах; квадратными скобками обозначены формы облаков: Ci - перистые, Cs - перисто-слоистые, Cc - перисто-кучевые, Ac - высококучевые, As - высокослоистые, Sc - слоисто-кучевые, Ns - слоисто-дождевые, Cu - кучевые, Cb - кучево-дождевые. Подробнее классификацию облаков см. в Атласе облаков (PDF).
T - Температура воздуха - температура, измеренная на высоте 2 м над землей.
Td - Температура точки росы - температура, при понижении до которой содержащийся в воздухе водяной пар достигнет насыщения.
f - Относительная влажность воздуха - влажноcть воздуха, измеренная на высоте 2 м над землей.
Te - Эффективная температура - температура, которую ощущает одетый по сезону человек в тени. Характеристика душности погоды. При расчете учитывается влияние влажности воздуха и скорости ветра на теплоощущения человека.
Tes - Эффективная температура на солнце - температура, которую ощущает человек, с поправкой на солнечный нагрев. Характеристика знойности погоды. Зависит от высоты солнца над горизонтом, облачности и скорости ветра. Ночью, в пасмурную погоду, а также при ветре 12 м/с и более поправка равна нулю.
P - Атмосферное давление - приведенное к уровню моря атмосферное давление.
Po - Атмосферное давление - измеренное на уровне метеостанции атмосферное давление.
Tmin - Минимальная температура - минимум температуры воздуха на высоте 2 м над землей.
Tmax - Максимальная температура - максимум температуры воздуха на высоте 2 м над землей.
R - Количество осадков - Количество выпавших осадков, мм. При наведении курсора мыши на число - период времени, за который выпало указанное количество осадков.
S - Снежный покров - Высота снежного покрова, см. При наведении курсора мыши на число - состояние снежного покрова и степень покрытия местности в баллах.